International Skating Union - Official Site

Essent ISU World Cup Hamar
November 27-28, 2010

Draw | Lap Times | Index | World Cup

Referee: Knut Arthur  OLSEN  (NOR)
Starter: Luigi  CASAL  (ITA)
StartTime: EndTime: Air Temp: Ice Temp: Humidity:
14:23 16:06 16℃ -10.8℃ 15.5%
Result 10000m Men Division A
Rankings as of Nov 28 2010 4:37PM
Rank: No.: Name: Nation: Time: Behind: Points:
1 40 Bob  de JONG NED NED 13:05.83400m - 35.88 - (35.8)
800m - 1:07.45 - (31.5)
1200m - 1:38.90 - (31.4)
1600m - 2:10.39 - (31.4)
2000m - 2:41.80 - (31.4)
2400m - 3:13.02 - (31.2)
2800m - 3:44.59 - (31.5)
3200m - 4:16.28 - (31.6)
3600m - 4:47.54 - (31.2)
4000m - 5:18.97 - (31.4)
4400m - 5:50.52 - (31.5)
4800m - 6:21.95 - (31.4)
5200m - 6:53.54 - (31.5)
5600m - 7:24.82 - (31.2)
6000m - 7:56.24 - (31.4)
6400m - 8:27.39 - (31.1)
6800m - 8:58.44 - (31.0)
7200m - 9:29.36 - (30.9)
7600m - 10:00.30 - (30.9)
8000m - 10:31.35 - (31.0)
8400m - 11:02.55 - (31.2)
8800m - 11:33.67 - (31.1)
9200m - 12:04.70 - (31.0)
9600m - 12:35.68 - (30.9)
10000m - 13:05.83 - (30.1)
100
2 62 Ivan  SKOBREV RUS RUS 13:11.26400m - 35.79 - (35.8)
800m - 1:07.76 - (31.9)
1200m - 1:39.46 - (31.7)
1600m - 2:11.39 - (31.9)
2000m - 2:42.76 - (31.3)
2400m - 3:14.56 - (31.8)
2800m - 3:46.84 - (32.2)
3200m - 4:18.46 - (31.6)
3600m - 4:49.73 - (31.2)
4000m - 5:20.92 - (31.1)
4400m - 5:52.17 - (31.2)
4800m - 6:23.46 - (31.2)
5200m - 6:54.95 - (31.4)
5600m - 7:26.37 - (31.4)
6000m - 7:57.72 - (31.3)
6400m - 8:29.11 - (31.3)
6800m - 9:00.59 - (31.4)
7200m - 9:32.16 - (31.5)
7600m - 10:03.76 - (31.6)
8000m - 10:35.30 - (31.5)
8400m - 11:06.53 - (31.2)
8800m - 11:37.55 - (31.0)
9200m - 12:08.70 - (31.1)
9600m - 12:39.69 - (30.9)
10000m - 13:11.26 - (31.5)
5.43 80
3 34 Jorrit  BERGSMA NED NED 13:13.98400m - 36.67 - (36.6)
800m - 1:07.99 - (31.3)
1200m - 1:39.93 - (31.9)
1600m - 2:11.79 - (31.8)
2000m - 2:43.65 - (31.8)
2400m - 3:15.27 - (31.6)
2800m - 3:46.77 - (31.5)
3200m - 4:18.23 - (31.4)
3600m - 4:49.65 - (31.4)
4000m - 5:20.94 - (31.2)
4400m - 5:52.09 - (31.1)
4800m - 6:23.06 - (30.9)
5200m - 6:54.13 - (31.0)
5600m - 7:25.27 - (31.1)
6000m - 7:56.72 - (31.4)
6400m - 8:28.06 - (31.3)
6800m - 8:59.45 - (31.3)
7200m - 9:30.94 - (31.4)
7600m - 10:02.71 - (31.7)
8000m - 10:34.36 - (31.6)
8400m - 11:06.20 - (31.8)
8800m - 11:38.19 - (31.9)
9200m - 12:10.23 - (32.0)
9600m - 12:42.08 - (31.8)
10000m - 13:13.98 - (31.9)
8.15 70
4 47 Håvard  BØKKO NOR NOR 13:19.89400m - 34.77 - (34.7)
800m - 1:06.45 - (31.6)
1200m - 1:38.43 - (31.9)
1600m - 2:10.24 - (31.8)
2000m - 2:41.77 - (31.5)
2400m - 3:13.77 - (32.0)
2800m - 3:45.74 - (31.9)
3200m - 4:17.74 - (32.0)
3600m - 4:49.51 - (31.7)
4000m - 5:21.39 - (31.8)
4400m - 5:52.72 - (31.3)
4800m - 6:24.39 - (31.6)
5200m - 6:56.40 - (32.0)
5600m - 7:28.37 - (31.9)
6000m - 8:00.36 - (31.9)
6400m - 8:32.37 - (32.0)
6800m - 9:04.60 - (32.2)
7200m - 9:36.73 - (32.1)
7600m - 10:08.80 - (32.0)
8000m - 10:40.76 - (31.9)
8400m - 11:12.41 - (31.6)
8800m - 11:44.36 - (31.9)
9200m - 12:16.43 - (32.0)
9600m - 12:48.32 - (31.8)
10000m - 13:19.89 - (31.5)
14.06 60
5 46 Bob  de VRIES NED NED 13:20.84400m - 35.25 - (35.2)
800m - 1:06.14 - (30.8)
1200m - 1:37.49 - (31.3)
1600m - 2:08.89 - (31.4)
2000m - 2:40.16 - (31.2)
2400m - 3:11.45 - (31.2)
2800m - 3:42.64 - (31.1)
3200m - 4:13.94 - (31.3)
3600m - 4:44.98 - (31.0)
4000m - 5:16.05 - (31.0)
4400m - 5:47.31 - (31.2)
4800m - 6:18.77 - (31.4)
5200m - 6:50.20 - (31.4)
5600m - 7:21.76 - (31.5)
6000m - 7:53.34 - (31.5)
6400m - 8:25.13 - (31.7)
6800m - 8:57.20 - (32.0)
7200m - 9:29.52 - (32.3)
7600m - 10:01.77 - (32.2)
8000m - 10:34.38 - (32.6)
8400m - 11:07.29 - (32.9)
8800m - 11:40.40 - (33.1)
9200m - 12:13.83 - (33.4)
9600m - 12:47.48 - (33.6)
10000m - 13:20.84 - (33.3)
15.01 50
6 67 Jonathan  KUCK USA USA 13:23.86400m - 34.81 - (34.8)
800m - 1:05.93 - (31.1)
1200m - 1:38.00 - (32.0)
1600m - 2:09.86 - (31.8)
2000m - 2:41.30 - (31.4)
2400m - 3:12.52 - (31.2)
2800m - 3:43.66 - (31.1)
3200m - 4:15.30 - (31.6)
3600m - 4:47.07 - (31.7)
4000m - 5:18.67 - (31.6)
4400m - 5:50.13 - (31.4)
4800m - 6:22.04 - (31.9)
5200m - 6:53.74 - (31.7)
5600m - 7:25.36 - (31.6)
6000m - 7:56.76 - (31.4)
6400m - 8:28.36 - (31.6)
6800m - 9:00.52 - (32.1)
7200m - 9:32.83 - (32.3)
7600m - 10:05.37 - (32.5)
8000m - 10:38.13 - (32.7)
8400m - 11:11.09 - (32.9)
8800m - 11:44.02 - (32.9)
9200m - 12:17.14 - (33.1)
9600m - 12:50.27 - (33.1)
10000m - 13:23.86 - (33.5)
45
7 29 Dmitry  BABENKO KAZ KAZ 13:24.39400m - 35.21 - (35.2)
800m - 1:07.25 - (32.0)
1200m - 1:39.23 - (31.9)
1600m - 2:11.01 - (31.7)
2000m - 2:42.32 - (31.3)
2400m - 3:14.05 - (31.7)
2800m - 3:45.68 - (31.6)
3200m - 4:17.54 - (31.8)
3600m - 4:49.12 - (31.5)
4000m - 5:21.31 - (32.1)
4400m - 5:53.26 - (31.9)
4800m - 6:25.23 - (31.9)
5200m - 6:57.35 - (32.1)
5600m - 7:29.81 - (32.4)
6000m - 8:02.23 - (32.4)
6400m - 8:34.71 - (32.4)
6800m - 9:07.18 - (32.4)
7200m - 9:39.45 - (32.2)
7600m - 10:11.80 - (32.3)
8000m - 10:44.09 - (32.2)
8400m - 11:16.00 - (31.9)
8800m - 11:48.21 - (32.2)
9200m - 12:20.78 - (32.5)
9600m - 12:52.81 - (32.0)
10000m - 13:24.39 - (31.5)
18.56 40
8 42 Arjen  van der KIEFT NED NED 13:27.28400m - 36.03 - (36.0)
800m - 1:07.82 - (31.7)
1200m - 1:39.53 - (31.7)
1600m - 2:11.51 - (31.9)
2000m - 2:43.22 - (31.7)
2400m - 3:15.04 - (31.8)
2800m - 3:46.79 - (31.7)
3200m - 4:18.47 - (31.6)
3600m - 4:50.55 - (32.0)
4000m - 5:22.78 - (32.2)
4400m - 5:55.08 - (32.3)
4800m - 6:27.48 - (32.4)
5200m - 6:59.81 - (32.3)
5600m - 7:32.17 - (32.3)
6000m - 8:04.93 - (32.7)
6400m - 8:37.50 - (32.5)
6800m - 9:09.71 - (32.2)
7200m - 9:41.87 - (32.1)
7600m - 10:14.01 - (32.1)
8000m - 10:46.17 - (32.1)
8400m - 11:18.38 - (32.2)
8800m - 11:50.86 - (32.4)
9200m - 12:22.92 - (32.0)
9600m - 12:55.15 - (32.2)
10000m - 13:27.28 - (32.1)
21.45 35
9 49 Øystein  GRØDUM NOR NOR 13:34.63400m - 35.99 - (36.0)
800m - 1:07.50 - (31.5)
1200m - 1:39.16 - (31.6)
1600m - 2:10.54 - (31.3)
2000m - 2:42.42 - (31.8)
2400m - 3:13.82 - (31.4)
2800m - 3:45.87 - (32.0)
3200m - 4:17.70 - (31.8)
3600m - 4:50.03 - (32.3)
4000m - 5:22.35 - (32.3)
4400m - 5:54.73 - (32.3)
4800m - 6:27.18 - (32.4)
5200m - 6:59.87 - (32.6)
5600m - 7:32.22 - (32.3)
6000m - 8:04.98 - (32.7)
6400m - 8:37.51 - (32.5)
6800m - 9:10.43 - (32.9)
7200m - 9:43.08 - (32.6)
7600m - 10:15.96 - (32.8)
8000m - 10:48.94 - (32.9)
8400m - 11:22.18 - (33.2)
8800m - 11:55.46 - (33.2)
9200m - 12:28.91 - (33.4)
9600m - 13:01.95 - (33.0)
10000m - 13:34.63 - (32.6)
28.80 30
10 12 Alexis  CONTIN FRA FRA 13:41.18400m - 34.89 - (34.8)
800m - 1:06.17 - (31.2)
1200m - 1:37.96 - (31.8)
1600m - 2:09.64 - (31.6)
2000m - 2:41.19 - (31.5)
2400m - 3:12.34 - (31.1)
2800m - 3:43.64 - (31.3)
3200m - 4:14.76 - (31.1)
3600m - 4:46.28 - (31.5)
4000m - 5:18.11 - (31.8)
4400m - 5:50.33 - (32.2)
4800m - 6:22.38 - (32.0)
5200m - 6:54.34 - (31.9)
5600m - 7:26.59 - (32.2)
6000m - 7:59.09 - (32.5)
6400m - 8:31.72 - (32.6)
6800m - 9:04.86 - (33.1)
7200m - 9:38.81 - (33.9)
7600m - 10:13.08 - (34.2)
8000m - 10:47.53 - (34.4)
8400m - 11:22.25 - (34.7)
8800m - 11:57.12 - (34.8)
9200m - 12:32.21 - (35.0)
9600m - 13:06.77 - (34.5)
10000m - 13:41.18 - (34.4)
35.35 25
11 68 Trevor  MARSICANO USA USA 13:47.67400m - 37.16 - (37.1)
800m - 1:08.63 - (31.4)
1200m - 1:40.77 - (32.1)
1600m - 2:12.85 - (32.0)
2000m - 2:44.52 - (31.6)
2400m - 3:16.51 - (31.9)
2800m - 3:48.08 - (31.5)
3200m - 4:19.86 - (31.7)
3600m - 4:51.85 - (31.9)
4000m - 5:23.98 - (32.1)
4400m - 5:56.09 - (32.1)
4800m - 6:28.34 - (32.2)
5200m - 7:01.05 - (32.7)
5600m - 7:33.93 - (32.8)
6000m - 8:06.84 - (32.9)
6400m - 8:40.05 - (33.2)
6800m - 9:13.67 - (33.6)
7200m - 9:47.61 - (33.9)
7600m - 10:21.80 - (34.1)
8000m - 10:56.05 - (34.2)
8400m - 11:30.39 - (34.3)
8800m - 12:04.77 - (34.3)
9200m - 12:39.13 - (34.3)
9600m - 13:13.31 - (34.1)
10000m - 13:47.67 - (34.3)
41.84 20
12 3 Lucas  MAKOWSKY CAN CAN 13:56.42400m - 36.21 - (36.2)
800m - 1:08.64 - (32.4)
1200m - 1:40.54 - (31.9)
1600m - 2:12.75 - (32.2)
2000m - 2:44.96 - (32.2)
2400m - 3:17.37 - (32.4)
2800m - 3:49.90 - (32.5)
3200m - 4:22.68 - (32.7)
3600m - 4:55.69 - (33.0)
4000m - 5:28.81 - (33.1)
4400m - 6:02.13 - (33.3)
4800m - 6:35.78 - (33.6)
5200m - 7:09.70 - (33.9)
5600m - 7:43.39 - (33.6)
6000m - 8:16.95 - (33.5)
6400m - 8:50.42 - (33.4)
6800m - 9:24.04 - (33.6)
7200m - 9:57.82 - (33.7)
7600m - 10:31.87 - (34.0)
8000m - 11:05.81 - (33.9)
8400m - 11:40.00 - (34.1)
8800m - 12:14.28 - (34.2)
9200m - 12:48.55 - (34.2)
9600m - 13:22.82 - (34.2)
10000m - 13:56.42 - (33.6)
50.59 15